FW2567 Weather Reports


time (UTC)temp
F
wind
direction
speed
knots
gust
knots
rain 1hr
in
rain 24hr
in
rain mn
in
humidity
%
barometer
mb
20260508151644 58 336 3.5 14.8 0.00 0.00 0.00 61 1019.9
20260508150030 57 332 7.0 13.9 0.00 0.00 0.00 62 1019.7
20260508144530 55 1 3.5 9.6 0.00 0.00 0.00 62 1019.6
20260508143032 54 357 5.2 11.3 0.00 0.00 0.00 61 1019.3
20260508141527 54 351 4.3 11.3 0.00 0.00 0.00 61 1019.2
20260508140032 54 342 5.2 11.3 0.00 0.00 0.00 63 1019.1
20260508134530 53 316 4.3 9.6 0.00 0.00 0.00 65 1019.0
20260508133030 53 321 2.6 13.0 0.00 0.00 0.00 67 1018.9
20260508131531 52 343 4.3 9.6 0.00 0.00 0.00 71 1018.7
20260508130032 50 341 4.3 11.3 0.00 0.00 0.00 76 1018.6
20260508124532 45 349 5.2 11.3 0.00 0.00 0.00 82 1018.4
20260508123032 41 322 1.7 7.0 0.00 0.00 0.00 81 1018.3
20260508121530 41 136 0.0 2.6 0.00 0.00 0.00 79 1018.2
20260508120032 41 179 0.9 2.6 0.00 0.00 0.00 77 1018.1
20260508114531 42 157 0.0 3.5 0.00 0.00 0.00 75 1018.1
20260508113146 42 187 0.9 5.2 0.00 0.00 0.00 75 1018.0
20260508111605 42 143 0.9 4.3 0.00 0.00 0.00 75 1017.9
20260508104530 41 131 0.9 4.3 0.00 0.00 0.00 76 1017.8
20260508103107 40 125 0.0 3.5 0.00 0.00 0.00 78 1017.8
20260508101534 39 149 0.9 4.3 0.00 0.00 0.00 79 1017.8
20260508100032 39 109 0.0 4.3 0.00 0.00 0.00 78 1017.8
20260508094532 39 123 0.0 5.2 0.00 0.00 0.00 75 1017.8
20260508091530 41 153 0.9 4.3 0.00 0.00 0.00 73 1017.8
20260508090030 41 150 1.7 3.5 0.00 0.00 0.00 70 1017.8
20260508083031 44 152 3.5 7.0 0.00 0.00 0.00 68 1017.8
20260508081530 43 148 3.5 6.1 0.00 0.00 0.00 69 1017.9
20260508074532 42 71 0.9 3.5 0.00 0.00 0.00 70 1017.9
20260508073032 42 151 1.7 3.5 0.00 0.00 0.00 68 1018.0
20260508071605 44 121 0.9 3.5 0.00 0.00 0.00 66 1018.0
20260508070030 44 146 3.5 6.1 0.00 0.00 0.00 65 1018.0
20260508064531 45 163 1.7 4.3 0.00 0.00 0.00 64 1018.1
20260508060029 45 185 0.9 4.3 0.00 0.00 0.00 62 1018.3
20260508054532 46 158 1.7 5.2 0.00 0.00 0.00 59 1018.2
20260508051529 49 356 0.9 3.5 0.00 0.00 0.00 52 1018.3
20260508050146 50 44 0.0 3.5 0.00 0.00 0.00 49 1018.3
20260508044532 51 347 0.9 3.5 0.00 0.00 0.00 47 1018.3
20260508043030 51 348 0.9 4.3 0.00 0.00 0.00 47 1018.2
20260508040031 52 95 0.9 4.3 0.00 0.00 0.00 44 1017.9
20260508034605 55 15 0.9 6.1 0.00 0.00 0.00 39 1017.7
20260508033104 58 242 0.9 3.5 0.00 0.00 0.00 36 1017.6
20260508031531 60 326 2.6 7.0 0.00 0.00 0.00 35 1017.4
20260508030031 61 320 3.5 8.7 0.00 0.00 0.00 35 1017.5
20260508024530 63 336 3.5 11.3 0.00 0.00 0.00 34 1017.4
20260508023107 64 311 3.5 8.7 0.00 0.00 0.00 34 1017.3
20260508021529 65 329 5.2 10.4 0.00 0.00 0.00 34 1017.1
20260508020029 67 308 4.3 11.3 0.00 0.00 0.00 34 1017.1
20260508014530 68 297 5.2 10.4 0.00 0.00 0.00 33 1017.1
20260508013030 69 287 3.5 9.6 0.00 0.00 0.00 32 1017.1
20260508011607 70 301 5.2 10.4 0.00 0.00 0.00 30 1017.2
20260508010032 71 301 6.1 11.3 0.00 0.00 0.00 28 1017.2
20260508004603 72 294 6.1 12.2 0.00 0.00 0.00 27 1017.1
20260508003029 72 292 4.3 13.0 0.00 0.00 0.00 27 1017.1
20260508001531 73 283 6.1 12.2 0.00 0.00 0.00 26 1017.1
20260507234533 73 299 7.0 17.4 0.00 0.00 0.00 25 1017.0
20260507233031 74 310 6.1 14.8 0.00 0.00 0.00 25 1017.1
20260507231529 74 303 7.0 17.4 0.00 0.00 0.00 25 1017.2
20260507230029 74 295 5.2 12.2 0.00 0.00 0.00 25 1017.3
20260507224607 74 297 6.1 10.4 0.00 0.00 0.00 25 1017.4
20260507223030 74 278 5.2 12.2 0.00 0.00 0.00 27 1017.5
20260507221529 73 301 4.3 9.6 0.00 0.00 0.00 28 1017.7
20260507214530 71 330 3.5 10.4 0.00 0.00 0.00 29 1018.1
20260507213030 70 318 6.1 13.9 0.00 0.00 0.00 30 1018.1
20260507211607 70 328 6.1 13.9 0.00 0.00 0.00 32 1018.1
20260507210107 69 329 5.2 15.6 0.00 0.00 0.00 32 1018.1
20260507203031 70 317 6.1 15.6 0.00 0.00 0.00 33 1018.4
20260507201607 70 306 6.1 15.6 0.00 0.00 0.00 31 1018.6
20260507200106 70 285 6.1 12.2 0.00 0.00 0.00 31 1018.7
20260507194531 70 283 7.0 13.0 0.00 0.00 0.00 31 1018.8
20260507193031 70 292 6.1 13.9 0.00 0.00 0.00 31 1018.9
20260507191604 70 291 7.0 13.0 0.00 0.00 0.00 32 1018.9
20260507190033 69 296 7.0 13.0 0.00 0.00 0.00 32 1019.1
20260507184529 68 300 7.8 12.2 0.00 0.00 0.00 33 1019.2
20260507181532 67 287 6.1 13.0 0.00 0.00 0.00 36 1019.4
20260507180103 66 289 6.1 14.8 0.00 0.00 0.00 37 1019.6
20260507174531 65 291 6.1 13.9 0.00 0.00 0.00 40 1019.8
20260507173028 65 288 7.8 12.2 0.00 0.00 0.00 42 1019.9
20260507170031 64 335 5.2 11.3 0.00 0.00 0.00 48 1019.8
20260507164531 63 337 5.2 9.6 0.00 0.00 0.00 49 1019.9
20260507163031 63 341 4.3 11.3 0.00 0.00 0.00 49 1019.9
20260507160107 61 322 6.1 11.3 0.00 0.00 0.00 51 1019.9
20260507154531 61 330 6.1 12.2 0.00 0.00 0.00 51 1020.0